Retour au catalogue

THORAD AGENA D DEB

ActifLEO
NORAD 4155·DEBRIS·🇺🇸 United States

Lancé Sep 30, 1969 depuis Vandenberg Space Force Base

Loading…

Prochains Passages (prochaines 24 heures)

TLE

FraisSource: Space-Track

Époque: Sep 14, 2026, 07:13 UTC

1 04155U 69082X   26257.30127892  .00000564  00000-0  20032-3 0  9999
2 04155  70.0460 212.7039 0052828  68.0939 292.5794 14.38521436952368

Suivez THORAD AGENA D DEB en temps réel avec AllMySat

Download on the App Store